Location: Harwich
(41.7160°N, 69.9939°W)
Time: 11:25:59
(UTC+02:00)

CUTE-I - Visible Passes

Search period start: 16 September 2024 00:00
Search period end: 26 September 2024 00:00
Orbit: 807 x 820 km, 98.7° (Epoch: 15 September)

Date Brightness Start Highest point End Pass type
(mag) Time Alt. Az. Time Alt. Az. Time Alt. Az.
16 Sep ? 01:45:49 10° WSW 01:47:43 12° W 01:49:38 10° WNW visible
17 Sep ? 01:20:59 10° SW 01:24:48 20° W 01:28:38 10° NW visible
18 Sep ? 11:35:04 10° ENE 11:37:12 12° E 11:39:20 10° ESE visible
21 Sep ? 01:30:59 10° SW 01:34:12 16° W 01:37:28 10° NW visible
22 Sep ? 01:06:54 10° SSW 01:11:18 26° W 01:15:45 10° NW visible
22 Sep ? 11:43:34 10° NE 11:46:37 15° E 11:49:39 10° SE visible
25 Sep ? 01:41:11 10° WSW 01:43:35 13° W 01:46:01 10° WNW visible
